Location: Pandora
(40.9481°N, 83.9611°W)
Time: 16:51:28
(UTC-04:00)

Envisat - Pass Details

Date: 22 September 2021
Orbit: 764 x 766 km, 98.2° (Epoch: 15 October)

Event Time Altitude Azimuth Distance (km) Brightness Sun altitude
Rises 06:49:54 0° 12° (NNE) 3,239 6.5 -7.2°
Reaches altitude 10° 06:52:12 10° 12° (NNE) 2,308 5.7 -6.8°
Maximum altitude 06:57:19 89° 281° (W) 770 3.1 -5.8°
Drops below altitude 10° 07:02:22 10° 195° (SSW) 2,292 5.3 -4.8°
Sets 07:04:39 0° 195° (SSW) 3,213 6.0 -4.4°
